Location: Aulus
(42.7909°N, 1.3399°E)
Time: 16:00:10
(UTC+00:00)

Meteor 1-11 Rocket - Pass Details

Date: 19 May 2025
Orbit: 829 x 915 km, 81.2° (Epoch: 12 June)

Event Time Altitude Azimuth Distance (km) Brightness Sun altitude
Rises 22:44:51 0° 346° (NNW) 3,382 8.2 -25.4°
Reaches altitude 10° 22:47:16 10° 344° (NNW) 2,444 7.1 -25.5°
Maximum altitude 22:52:43 64° 264° (W) 919 3.8 -25.8°
Enters shadow 22:53:24 59° 227° (SW) 961 3.7 -25.8°
